Precipitable_Water
0.56 0.52 0.49 0.43 0.38 0.35 0.34 0.33 0.32 0.33 0.39 0.46 0.51 0.54 0.57 0.63 0.63 0.65 0.68 0.58 0.57 0.60 0.53 0.43 0.40 0.40 0.33 0.35 0.32 0.43 0.40 0.51 0.52 0.37 0.37 0.41 0.37 0.35 0.31 0.28 0.27 0.24 0.25 0.28 0.31 0.53 0.63
0.54 0.55 0.54 0.51 0.45 0.42 0.36 0.33 0.31 0.34 0.33 0.36 0.46 0.49 0.53 0.58 0.64 0.63 0.69 0.65 0.56 0.55 0.53 0.47 0.41 0.40 0.37 0.29 0.37 0.44 0.48 0.43 0.44 0.37 0.41 0.42 0.37 0.37 0.35 0.35 0.31 0.29 0.27 0.24 0.31 0.55 0.70
0.51 0.52 0.56 0.55 0.52 0.48 0.43 0.37 0.32 0.32 0.34 0.35 0.34 0.42 0.49 0.52 0.61 0.65 0.63 0.66 0.59 0.54 0.52 0.47 0.45 0.38 0.29 0.29 0.40 0.46 0.43 0.43 0.50 0.44 0.41 0.43 0.42 0.39 0.37 0.32 0.35 0.29 0.27 0.28 0.33 0.73 0.76
0.53 0.53 0.51 0.53 0.55 0.52 0.49 0.44 0.37 0.32 0.31 0.36 0.35 0.35 0.40 0.48 0.53 0.61 0.61 0.61 0.60 0.48 0.48 0.46 0.45 0.40 0.26 0.36 0.42 0.42 0.43 0.41 0.51 0.53 0.46 0.48 0.44 0.37 0.34 0.35 0.32 0.32 0.29 0.25 0.31 0.54 0.77
0.54 0.53 0.52 0.51 0.52 0.54 0.53 0.49 0.45 0.38 0.32 0.32 0.36 0.35 0.34 0.37 0.47 0.53 0.60 0.53 0.52 0.50 0.45 0.46 0.36 0.43 0.30 0.35 0.32 0.33 0.36 0.35 0.41 0.46 0.45 0.44 0.38 0.33 0.32 0.27 0.25 0.30 0.27 0.28 0.45 0.61 0.70
0.52 0.53 0.51 0.52 0.52 0.53 0.53 0.53 0.49 0.44 0.38 0.31 0.34 0.36 0.34 0.32 0.40 0.48 0.56 0.48 0.37 0.47 0.44 0.48 0.36 0.35 0.34 0.26 0.29 0.29 0.29 0.31 0.34 0.34 0.39 0.35 0.29 0.26 0.27 0.24 0.20 0.26 0.31 0.30 0.43 0.62 0.64
0.55 0.50 0.50 0.49 0.50 0.52 0.53 0.54 0.53 0.48 0.42 0.36 0.32 0.34 0.34 0.34 0.34 0.44 0.49 0.41 0.30 0.39 0.47 0.27 0.32 0.24 0.25 0.29 0.35 0.29 0.29 0.24 0.30 0.29 0.30 0.33 0.23 0.20 0.25 0.27 0.27 0.28 0.28 0.29 0.45 0.57 0.54
0.55 0.54 0.52 0.49 0.49 0.50 0.51 0.53 0.54 0.50 0.46 0.40 0.33 0.33 0.33 0.32 0.31 0.38 0.47 0.40 0.37 0.47 0.27 0.45 0.35 0.37 0.31 0.33 0.28 0.30 0.33 0.21 0.22 0.21 0.29 0.28 0.22 0.25 0.26 0.24 0.24 0.24 0.25 0.28 0.48 0.51 0.40
0.54 0.55 0.55 0.51 0.49 0.48 0.50 0.51 0.55 0.55 0.48 0.43 0.36 0.33 0.33 0.32 0.30 0.35 0.50 0.50 0.51 0.49 0.26 0.24 0.30 0.30 0.27 0.27 0.22 0.26 0.30 0.25 0.20 0.18 0.23 0.25 0.23 0.30 0.28 0.23 0.23 0.22 0.24 0.27 0.30 0.49 0.47
0.50 0.54 0.55 0.54 0.50 0.49 0.49 0.50 0.51 0.58 0.54 0.46 0.39 0.32 0.34 0.30 0.30 0.49 0.53 0.53 0.55 0.59 0.18 0.14 0.24 0.28 0.32 0.24 0.17 0.18 0.27 0.26 0.21 0.21 0.20 0.23 0.27 0.26 0.25 0.21 0.24 0.20 0.26 0.28 0.30 0.40 0.35
0.46 0.47 0.51 0.54 0.53 0.50 0.49 0.50 0.49 0.54 0.56 0.50 0.43 0.34 0.34 0.33 0.30 0.52 0.65 0.69 0.55 0.60 0.09 0.10 0.19 0.36 0.27 0.22 0.18 0.14 0.20 0.24 0.16 0.18 0.22 0.20 0.22 0.22 0.23 0.23 0.25 0.22 0.31 0.31 0.29 0.29 0.37
0.48 0.45 0.46 0.50 0.51 0.51 0.50 0.51 0.50 0.50 0.56 0.53 0.47 0.37 0.37 0.33 0.37 0.60 0.73 0.71 0.58 0.22 0.08 0.13 0.26 0.27 0.25 0.24 0.20 0.17 0.15 0.25 0.21 0.15 0.20 0.22 0.23 0.23 0.24 0.28 0.27 0.27 0.29 0.30 0.31 0.29 0.27
0.54 0.50 0.44 0.44 0.44 0.50 0.50 0.51 0.52 0.52 0.54 0.54 0.48 0.40 0.35 0.35 0.27 0.60 0.70 0.54 0.24 0.13 0.10 0.10 0.21 0.25 0.25 0.24 0.22 0.17 0.17 0.17 0.17 0.12 0.15 0.21 0.19 0.22 0.25 0.24 0.28 0.26 0.26 0.24 0.24 0.31 0.37
0.50 0.52 0.50 0.47 0.44 0.43 0.49 0.49 0.52 0.53 0.55 0.57 0.50 0.43 0.33 0.33 0.43 0.53 0.62 0.36 0.15 0.08 0.10 0.11 0.20 0.23 0.18 0.25 0.25 0.20 0.16 0.17 0.22 0.15 0.14 0.17 0.14 0.22 0.28 0.26 0.29 0.27 0.29 0.26 0.27 0.33 0.35
0.48 0.51 0.52 0.50 0.46 0.46 0.46 0.50 0.50 0.53 0.54 0.60 0.54 0.40 0.31 0.33 0.45 0.56 0.43 0.21 0.12 0.12 0.11 0.13 0.22 0.23 0.18 0.22 0.24 0.20 0.18 0.18 0.21 0.16 0.14 0.17 0.17 0.22 0.29 0.29 0.35 0.32 0.29 0.34 0.34 0.36 0.26
0.48 0.50 0.53 0.52 0.50 0.44 0.47 0.51 0.50 0.52 0.54 0.61 0.47 0.36 0.31 0.42 0.57 0.46 0.36 0.19 0.22 0.20 0.20 0.16 0.22 0.25 0.20 0.19 0.21 0.20 0.18 0.20 0.23 0.19 0.17 0.18 0.18 0.22 0.29 0.31 0.37 0.38 0.43 0.29 0.35 0.20 0.22
0.48 0.51 0.54 0.54 0.50 0.49 0.46 0.49 0.53 0.53 0.56 0.62 0.46 0.30 0.33 0.45 0.53 0.42 0.23 0.20 0.24 0.28 0.40 0.21 0.20 0.28 0.24 0.20 0.19 0.19 0.19 0.23 0.24 0.20 0.18 0.18 0.22 0.24 0.32 0.29 0.27 0.30 0.31 0.33 0.31 0.36 0.33
0.46 0.48 0.51 0.50 0.47 0.44 0.48 0.49 0.54 0.55 0.58 0.60 0.41 0.24 0.45 0.53 0.25 0.34 0.27 0.26 0.26 0.38 0.45 0.33 0.31 0.28 0.27 0.24 0.20 0.18 0.20 0.24 0.23 0.21 0.16 0.18 0.26 0.27 0.30 0.35 0.33 0.32 0.30 0.27 0.24 0.27 0.33
0.38 0.42 0.45 0.46 0.45 0.42 0.45 0.49 0.54 0.55 0.61 0.54 0.35 0.29 0.51 0.51 0.19 0.23 0.34 0.31 0.26 0.44 0.47 0.34 0.31 0.33 0.37 0.27 0.21 0.21 0.25 0.25 0.26 0.21 0.18 0.24 0.29 0.27 0.32 0.33 0.31 0.29 0.34 0.37 0.38 0.39 0.31
0.44 0.38 0.41 0.43 0.44 0.44 0.45 0.51 0.54 0.57 0.62 0.57 0.37 0.26 0.30 0.46 0.36 0.30 0.29 0.30 0.22 0.45 0.46 0.44 0.39 0.36 0.35 0.27 0.26 0.23 0.26 0.26 0.27 0.23 0.27 0.34 0.31 0.32 0.29 0.29 0.31 0.25 0.31 0.35 0.35 0.28 0.29
0.55 0.50 0.40 0.42 0.42 0.44 0.44 0.50 0.53 0.59 0.64 0.56 0.39 0.31 0.33 0.29 0.27 0.33 0.40 0.31 0.26 0.34 0.43 0.45 0.37 0.35 0.35 0.27 0.25 0.23 0.25 0.27 0.28 0.27 0.27 0.29 0.26 0.30 0.34 0.35 0.30 0.28 0.25 0.31 0.28 0.30 0.28
0.58 0.57 0.42 0.41 0.41 0.43 0.44 0.49 0.52 0.59 0.66 0.51 0.32 0.31 0.35 0.31 0.39 0.39 0.40 0.30 0.26 0.37 0.39 0.36 0.33 0.32 0.33 0.28 0.24 0.21 0.28 0.32 0.24 0.27 0.27 0.29 0.28 0.36 0.33 0.33 0.29 0.28 0.32 0.32 0.31 0.33 0.39
0.55 0.51 0.45 0.42 0.42 0.42 0.44 0.46 0.51 0.58 0.63 0.46 0.38 0.45 0.36 0.28 0.36 0.36 0.37 0.32 0.32 0.37 0.37 0.43 0.38 0.39 0.32 0.38 0.39 0.37 0.42 0.31 0.26 0.24 0.27 0.30 0.40 0.35 0.29 0.33 0.33 0.28 0.30 0.31 0.32 0.33 0.39
0.50 0.50 0.49 0.47 0.44 0.43 0.43 0.47 0.50 0.58 0.63 0.47 0.40 0.37 0.31 0.23 0.33 0.35 0.42 0.42 0.37 0.37 0.34 0.39 0.46 0.42 0.47 0.55 0.50 0.47 0.45 0.39 0.32 0.31 0.39 0.37 0.38 0.35 0.32 0.31 0.22 0.36 0.39 0.38 0.35 0.34 0.40
0.54 0.54 0.54 0.51 0.47 0.43 0.44 0.48 0.51 0.60 0.65 0.50 0.55 0.45 0.34 0.27 0.33 0.38 0.43 0.41 0.39 0.40 0.41 0.44 0.47 0.48 0.51 0.55 0.40 0.40 0.38 0.33 0.33 0.33 0.39 0.39 0.36 0.36 0.32 0.28 0.33 0.36 0.38 0.36 0.32 0.36 0.47
0.47 0.47 0.49 0.52 0.47 0.46 0.46 0.48 0.51 0.60 0.65 0.52 0.52 0.54 0.40 0.30 0.31 0.42 0.43 0.47 0.39 0.36 0.38 0.41 0.46 0.50 0.51 0.55 0.47 0.34 0.28 0.31 0.33 0.33 0.44 0.43 0.44 0.39 0.32 0.26 0.22 0.30 0.36 0.43 0.43 0.32 0.49
0.47 0.48 0.49 0.50 0.48 0.46 0.47 0.48 0.56 0.60 0.62 0.48 0.43 0.53 0.43 0.36 0.40 0.47 0.39 0.48 0.47 0.41 0.38 0.40 0.40 0.41 0.54 0.53 0.45 0.35 0.31 0.36 0.33 0.32 0.36 0.38 0.39 0.32 0.32 0.27 0.31 0.38 0.40 0.42 0.22 0.32 0.48
0.47 0.46 0.48 0.49 0.47 0.45 0.48 0.54 0.59 0.61 0.58 0.45 0.35 0.51 0.49 0.40 0.45 0.52 0.54 0.47 0.52 0.47 0.42 0.42 0.40 0.43 0.56 0.51 0.49 0.40 0.36 0.36 0.35 0.34 0.31 0.36 0.32 0.30 0.33 0.29 0.26 0.42 0.39 0.30 0.38 0.48 0.47
0.51 0.50 0.48 0.47 0.47 0.50 0.57 0.61 0.61 0.58 0.50 0.43 0.34 0.51 0.60 0.49 0.47 0.65 0.62 0.64 0.61 0.67 0.63 0.54 0.54 0.61 0.58 0.56 0.59 0.45 0.39 0.41 0.35 0.28 0.39 0.33 0.35 0.35 0.35 0.35 0.44 0.45 0.44 0.51 0.48 0.46 0.44
Wind_Speed
27 27 26 26 25 25 25 25 25 26 26 27 26 26 26 25 25 24 23 22 23 22 21 19 18 17 15 17 17 12 11 9 10 12 13 11 11 11 12 12 12 14 13 15 11 7 5
28 28 28 28 27 26 26 26 26 26 26 27 28 28 27 26 26 26 24 23 23 23 23 21 19 18 18 19 15 14 13 12 11 12 12 12 10 10 12 13 12 13 10 13 10 6 5
29 29 29 30 29 28 28 27 27 27 27 27 28 28 29 28 27 27 26 25 24 24 23 22 20 20 21 23 18 15 14 15 14 14 13 12 12 11 9 12 13 14 14 13 12 9 5
30 30 31 31 31 30 30 29 28 28 28 28 28 28 29 30 29 28 28 27 26 25 25 24 22 22 23 21 20 21 19 17 17 16 15 11 12 12 13 12 13 13 14 14 16 13 12
32 32 32 32 32 32 31 31 30 30 29 29 29 29 29 30 30 29 29 29 29 27 26 24 24 24 23 21 24 24 22 20 18 17 16 13 13 13 13 13 13 13 12 16 8 12 7
33 33 33 33 33 33 33 32 31 31 31 30 29 29 29 30 31 30 29 30 28 26 26 25 26 25 26 22 22 23 24 23 20 19 18 16 14 14 14 14 12 13 15 9 11 9 4
34 34 34 34 34 34 34 34 33 32 32 31 30 30 30 29 29 30 27 24 24 25 27 27 23 27 19 23 20 21 23 24 22 21 21 19 18 19 18 18 18 18 14 10 7 7 9
36 35 35 35 34 34 34 34 34 33 32 31 31 30 29 29 29 29 27 26 24 25 27 31 33 34 31 25 22 25 24 24 25 25 23 22 22 20 20 18 20 17 16 14 6 9 11
37 36 36 36 36 36 35 35 35 34 33 32 30 30 29 28 28 27 27 28 28 25 27 30 33 35 33 31 30 27 28 27 25 26 25 25 22 20 20 21 19 17 17 15 16 8 10
38 38 38 38 37 37 37 36 36 35 34 32 31 29 28 27 26 24 23 24 24 24 24 26 27 32 35 32 30 33 30 28 26 29 27 27 24 24 18 20 17 18 17 17 13 11 14
40 40 40 40 39 39 38 37 37 36 35 33 32 30 28 26 27 24 25 25 25 24 22 22 31 25 29 35 20 29 29 28 30 28 25 26 25 24 20 19 18 17 12 12 14 16 14
42 42 41 41 41 40 39 38 37 37 36 35 33 31 29 27 28 29 27 26 25 25 28 23 22 26 28 33 32 21 29 29 27 27 27 25 22 22 23 18 17 18 13 15 15 16 16
44 44 44 43 43 41 41 39 38 38 38 36 35 33 31 29 28 30 27 25 26 30 28 29 27 27 30 29 33 32 30 30 28 25 26 24 25 22 22 20 18 18 14 12 13 11 8
47 47 46 45 44 44 42 41 40 39 38 37 36 35 33 32 31 30 28 29 31 36 35 21 27 28 30 28 32 34 31 30 30 27 23 22 21 23 19 21 16 18 17 13 10 7 12
50 49 49 48 46 45 45 43 41 40 39 38 36 35 35 32 33 31 31 35 36 33 41 31 27 25 30 29 24 33 34 32 31 30 26 21 21 22 22 18 19 16 19 17 15 15 13
48 49 49 48 47 46 46 44 42 40 38 37 35 34 35 33 34 35 35 42 39 33 27 37 28 27 27 30 28 31 30 31 31 30 28 22 16 22 21 19 22 19 13 14 12 12 10
46 45 45 45 44 44 44 44 42 39 37 36 33 30 31 33 33 36 40 44 41 38 24 32 31 27 28 28 30 27 26 25 30 29 29 25 18 17 22 19 21 16 14 12 13 8 6
42 41 40 40 40 39 40 42 42 39 36 35 31 30 29 31 33 38 43 47 46 35 27 27 25 26 24 28 29 28 28 27 25 28 29 28 16 17 23 19 18 18 16 15 11 9 7
38 38 38 37 36 36 36 39 41 39 38 33 31 29 27 30 33 41 40 46 50 40 32 28 28 25 22 25 25 27 23 25 20 29 28 25 17 17 19 18 20 17 16 17 10 9 10
40 37 37 37 36 34 33 36 40 40 38 35 28 26 31 30 33 35 43 45 52 44 39 32 26 25 25 23 23 24 24 24 22 26 23 20 19 19 17 17 16 18 18 12 11 9 7
41 40 37 36 36 34 33 36 40 39 39 36 31 26 26 24 34 38 37 42 50 44 42 32 30 31 26 24 24 23 25 23 22 22 23 22 19 18 18 16 17 18 19 13 11 8 7
41 41 37 34 35 35 34 37 40 39 39 36 29 27 25 26 28 30 38 46 51 42 39 36 32 27 26 25 23 24 24 23 25 24 24 24 19 16 14 10 20 16 14 12 7 3 5
33 38 36 34 33 34 36 39 41 40 39 33 33 25 25 25 25 26 36 46 47 43 40 36 28 20 27 21 17 19 21 18 19 24 23 23 17 17 15 13 12 11 10 9 7 6 9
26 32 33 33 34 34 38 41 42 41 41 31 30 27 26 26 25 28 30 44 45 42 39 34 31 25 20 18 20 21 22 23 22 24 24 22 19 17 13 14 13 7 9 8 7 6 8
25 30 31 32 32 35 40 41 41 41 40 34 24 25 27 23 26 28 31 39 43 38 35 31 26 25 19 19 22 22 24 23 26 27 25 24 21 13 13 13 9 10 11 10 9 6 10
22 24 28 30 32 38 41 41 40 39 39 36 27 24 23 23 27 27 28 35 36 39 34 34 31 25 21 20 22 25 26 26 23 29 26 25 21 14 14 13 11 12 14 12 10 7 11
18 21 26 28 33 39 40 40 38 36 37 35 30 27 24 21 24 29 34 30 37 36 33 31 29 26 26 23 22 25 24 26 24 27 26 24 21 18 14 12 7 11 15 14 12 9 14
15 20 23 28 36 38 38 36 36 35 35 32 29 28 26 24 20 25 33 36 34 35 30 27 27 28 26 24 22 25 23 24 21 25 27 22 19 16 14 13 9 14 15 12 7 13 16
16 20 26 32 34 35 34 34 34 33 31 31 27 24 26 24 24 23 31 41 42 35 26 27 27 23 26 23 18 24 22 22 24 25 26 21 20 15 11 11 11 14 12 10 12 16 16
Wind_Direction
276 276 276 277 277 276 276 276 275 274 272 270 269 269 269 270 266 268 269 270 262 260 260 261 260 255 245 231 231 229 224 222 210 210 214 229 232 240 249 256 264 264 266 262 270 277 285
276 275 274 275 275 276 275 275 275 274 273 271 269 267 267 267 266 265 266 267 263 259 257 257 254 249 235 232 228 228 226 220 216 212 220 231 234 244 261 273 272 271 283 258 251 248 253
276 275 274 273 273 274 274 274 275 273 273 272 270 267 265 266 266 264 263 264 265 256 255 252 248 242 236 230 227 230 227 225 222 219 227 234 242 257 257 262 267 267 270 264 253 214 231
276 275 274 273 272 272 272 272 273 273 273 271 271 269 266 263 263 264 262 261 261 259 254 246 243 238 236 231 232 232 230 229 226 229 235 245 245 255 259 268 274 270 261 267 245 235 245
275 274 273 273 272 270 270 270 271 272 272 271 270 270 267 264 261 262 262 261 258 255 247 242 238 235 238 232 230 231 228 229 227 231 232 240 246 251 257 263 266 253 261 247 215 238 239
274 274 273 272 271 270 269 269 269 270 271 271 269 269 268 266 261 260 262 259 253 248 241 237 239 236 233 229 230 227 225 226 228 229 231 237 244 248 249 254 251 251 243 263 210 244 236
274 273 272 271 270 269 268 267 268 268 269 270 269 267 268 266 262 258 260 251 242 238 236 233 231 228 230 225 227 227 224 222 227 228 231 232 240 245 249 243 252 264 276 280 198 230 267
273 272 271 270 269 269 268 267 266 267 267 268 268 267 266 266 261 254 252 241 243 244 245 241 239 235 235 235 234 227 221 221 224 230 231 238 241 250 255 255 251 255 259 253 216 248 273
272 270 270 269 269 268 267 266 265 264 264 265 266 265 265 265 260 248 242 241 243 247 241 241 236 231 230 231 232 231 219 223 226 229 230 235 245 247 249 252 248 249 249 251 262 244 277
271 270 269 268 268 268 267 266 264 261 261 262 263 263 264 264 249 243 237 235 236 241 241 238 229 230 224 225 232 229 224 225 231 231 236 241 245 253 250 244 244 247 244 250 253 252 271
271 269 269 268 267 267 265 265 263 260 259 258 260 260 260 255 246 233 238 241 234 229 235 230 220 222 217 215 224 223 223 222 229 235 235 242 243 245 242 245 237 245 251 243 250 261 262
271 269 268 267 266 265 263 262 261 258 256 256 256 257 256 252 240 235 240 238 226 221 228 224 209 213 211 215 221 224 217 222 230 236 239 243 241 236 237 238 238 235 239 253 262 266 259
270 269 267 266 264 263 261 259 258 257 254 254 253 253 250 248 241 236 237 225 216 221 218 219 210 214 215 216 217 222 212 217 222 224 233 234 235 236 233 230 230 232 236 246 249 249 292
269 267 266 265 263 260 259 257 256 254 251 250 251 250 247 244 238 232 225 216 221 220 218 221 211 215 217 214 219 219 216 220 220 224 224 226 225 223 222 226 220 226 228 237 245 271 273
269 266 264 262 261 258 256 254 252 250 248 246 247 247 244 240 232 224 218 216 216 218 214 219 211 213 215 215 217 216 220 219 220 220 222 223 230 221 223 217 220 221 233 242 255 265 270
269 265 262 260 258 256 252 249 247 245 242 240 242 242 240 235 225 218 217 218 218 220 217 216 215 214 214 212 213 212 215 220 220 217 220 229 231 223 207 219 226 230 234 237 246 265 284
268 264 260 257 255 253 249 243 240 238 235 232 235 237 235 223 218 214 218 216 216 219 233 216 219 218 221 213 212 213 220 219 216 213 215 221 232 222 203 213 216 220 236 233 243 230 230
265 261 257 254 251 248 244 237 232 228 225 223 226 227 223 215 218 217 218 214 213 216 228 217 216 221 220 215 210 219 216 216 210 210 209 214 225 221 209 209 221 218 222 235 238 260 275
261 257 253 249 245 242 240 232 223 220 216 215 220 221 219 215 218 216 215 216 211 217 223 212 214 217 222 216 212 214 219 215 211 205 204 205 212 216 207 212 219 228 227 232 249 257 257
258 255 250 245 240 237 234 224 216 213 210 210 214 216 215 216 217 217 211 214 208 214 221 222 219 220 221 215 213 207 217 207 202 204 199 204 206 218 211 213 215 219 226 226 233 248 265
252 249 245 238 233 231 228 217 209 207 205 205 209 212 214 213 214 211 214 208 205 211 211 213 213 215 216 211 213 207 208 199 197 200 197 201 210 220 228 204 211 211 220 223 233 258 269
245 236 234 232 227 224 219 209 204 202 200 205 205 209 211 212 205 211 210 205 202 205 205 208 208 207 211 211 208 202 201 197 200 196 193 196 204 217 209 236 193 197 203 204 207 203 169
236 224 224 222 220 217 211 204 200 199 197 201 205 205 204 203 206 208 203 199 200 202 203 207 201 217 209 210 215 216 197 197 191 189 190 193 202 192 193 192 172 184 191 198 206 233 185
223 215 218 218 217 212 204 199 197 197 197 197 203 207 206 209 208 204 201 201 199 199 201 201 207 209 204 213 211 203 186 193 192 192 191 190 193 193 189 187 194 193 191 196 207 219 171
217 214 214 211 208 203 196 194 194 194 195 197 196 198 198 208 208 208 203 199 195 197 201 204 204 202 203 200 192 190 181 185 186 189 189 191 190 190 188 189 185 199 213 199 184 158 164
208 207 208 201 198 192 190 190 191 192 195 197 199 197 198 205 203 198 192 195 196 192 197 201 204 200 195 191 191 189 188 183 184 186 189 189 195 187 192 198 210 223 200 187 169 175 170
185 186 184 188 187 184 184 185 188 190 191 196 200 200 198 195 202 200 193 188 194 191 195 197 195 196 192 189 192 187 186 186 182 182 185 192 190 197 192 201 209 176 181 177 204 196 175
171 176 179 176 174 176 179 183 185 186 189 194 199 198 201 203 203 197 194 197 191 191 191 186 190 189 187 190 191 185 189 190 191 193 189 184 187 193 194 195 194 180 180 195 195 168 167
150 157 161 163 167 171 175 178 181 184 188 191 193 198 200 201 200 199 203 197 194 192 187 185 183 180 189 190 190 189 185 187 183 184 187 190 191 186 193 194 172 175 172 173 167 163 164